Погода в Берёзовке

Россия / Хабаровский край     48°33′23″N   135°07′08″E
темп.,
°C
ветер,
м/с
пор.,
м/с
влажн.,
%
обл.,
%
осадки,
мм/ч
давл.,
гПа
погр.,
м
23 января, сб
сб2301:00−22зюз59870 0.0 1027135
04:00−23зюз59870 0.0 1028150
07:00−23зюз58860 0.0 1029144
10:00−22юз59830 0.0 1030201
13:00−18зюз59800 0.0 1029353
16:00−17зюз46867 0.0 1028277
19:00−21юз23917 0.0 102931
22:00−19ююз128845 0.0 102920
24 января, вс
вс2401:00−19юз1190100 0.0 102820
04:00−19юз248895 0.0 102772
07:00−20юз249122 0.0 102655
10:00−18юз489038 0.0 1028221
13:00−15юз698650 0.0 1028364
16:00−14зюз488871 0.0 1028349
19:00−17юз359189 0.0 103096
22:00−17юз349193 0.0 103075
25 января, пн
пн2501:00−17юз239190 0.0 103142
04:00−17юз239293 0.0 103252
07:00−18юз2292100 0.0 103233
10:00−17ююв119297 0.0 103320
13:00−15св118660 0.0 1033281
16:00−14св239080 0.0 1032254
19:00−18св359569 0.0 1031109
22:00−18св499585 0.0 1029227
26 января, вт
вт2601:00−18всв51196100 0.0 1026270
04:00−18св5994100 0.0 1023302
07:00−18всв5897100 1.1 1021278
10:00−17св5796100 4.0 1019241
13:00−15св5796100 1.7 1016237
16:00−14св4695100 2.6 1015222
19:00−16св3596100 0.2 1015130
22:00−19св2398100 0.3 101554
27 января, ср
ср2701:00−19св2398100 0.2 101683
04:00−20св2399100 0.3 101570
07:00−23всв2399100 0.1 101531
10:00−22всв3498100 0.3 1016141
13:00−18з4889100 0.3 1016689
16:00−19з3592100 0.4 1016700
19:00−21юз3693100 0.1 1018149
22:00−23юз379292 0.1 1019122